Location: Hermaringen
(48.5952°N, 10.2585°E)
Time: 20:41:38
(UTC+00:00)

Landsat 7 - Pass Details

Date: 18 November 2025
Orbit: 680 x 682 km, 97.9° (Epoch: 05 December)

Event Time Altitude Azimuth Distance (km) Brightness Sun altitude
Rises 16:46:52 0° 164° (SSE) 3,030 7.1 -11.6°
Reaches altitude 10° 16:49:06 10° 164° (SSE) 2,119 6.3 -12.0°
Maximum altitude 16:53:45 87° 77° (ENE) 690 3.7 -12.7°
Drops below altitude 10° 16:58:26 10° 347° (NNW) 2,135 6.3 -13.5°
Sets 17:00:41 0° 347° (NNW) 3,054 7.1 -13.9°
